Location: Fort Wayne
(41.1310°N, 85.1290°W)
Time: 22:56:34
(UTC-04:00)

Cosmos 2056 Rocket - Visible Passes

Search period start: 29 July 2014 00:00
Search period end: 08 August 2014 00:00
Orbit: 744 x 802 km, 74.0° (Epoch: 29 July)

Date Brightness Start Highest point End Pass type
(mag) Time Alt. Az. Time Alt. Az. Time Alt. Az.
29 Jul 3.8 00:55:50 10° NNW 01:00:10 64° NNW 01:00:10 64° NNW visible
30 Jul 3.8 00:20:17 10° NNW 00:25:03 56° NE 00:25:03 56° NE visible
30 Jul 5.7 02:03:53 10° WNW 02:05:24 14° WNW 02:05:24 14° WNW visible
30 Jul 4.4 23:44:55 10° N 23:49:36 34° ENE 23:49:58 34° ENE visible
31 Jul 5.1 01:27:20 10° NW 01:30:19 24° WNW 01:30:19 24° WNW visible
31 Jul 5.0 23:09:48 10° N 23:13:46 22° ENE 23:14:54 20° ENE visible
01 Aug 4.3 00:51:16 10° NNW 00:55:15 41° WNW 00:55:15 41° WNW visible
01 Aug 5.5 22:35:09 10° NNE 22:37:48 14° NE 22:39:52 11° E visible
02 Aug 3.5 00:15:29 10° NNW 00:20:13 73° WNW 00:20:13 73° WNW visible
02 Aug 3.5 23:39:54 10° NNW 23:44:59 62° ENE 23:45:13 62° E visible
03 Aug 5.8 01:23:49 10° WNW 01:25:34 14° W 01:25:34 14° W visible
03 Aug 4.2 23:04:30 10° N 23:09:16 37° ENE 23:10:14 34° E visible
04 Aug 5.1 00:47:05 10° NW 00:50:35 24° W 00:50:35 24° W visible
04 Aug 4.9 22:29:20 10° N 22:33:26 24° ENE 22:35:16 20° E visible
05 Aug 4.2 00:10:57 10° NNW 00:15:38 42° W 00:15:38 42° W visible
05 Aug 5.4 21:54:33 10° NNE 21:57:30 15° NE 22:00:21 10° E visible
05 Aug 3.4 23:35:08 10° NNW 23:40:14 72° WSW 23:40:42 66° SSW visible
06 Aug 3.4 22:59:30 10° NNW 23:04:37 69° ENE 23:05:49 50° SE visible
07 Aug 5.8 00:43:47 10° WNW 00:46:06 13° W 00:46:11 13° W visible
07 Aug 4.1 22:24:04 10° N 22:28:55 41° ENE 22:30:57 28° ESE visible
